Weather History for KEET - November, 2012

Change the Weather History Date:

Wednesday, November 7, 2012

  Actual Average Record
Temperature  
Mean Temperature 51 °F 57 °F  
Max Temperature 59 °F 69 °F - ()
Min Temperature 42 °F 46 °F - ()
Degree Days  
Heating Degree Days 14 8  
Month to date heating degree days 60 55  
Since 1 July heating degree days 173 178  
Moisture  
Dew Point 40 °F    
Average Humidity 70    
Maximum Humidity 93    
Minimum Humidity 47    
Precipitation  
Precipitation 0.00 in 0.16 in - ()
Month to date precipitation 0.53 1.08  
Year to date precipitation 47.09 46.01  
Snow  
Snow 0.00 in - - ()
Month to date snowfall 0.0  
Since 1 July snowfall 0.0  
Since 1 September snowfall 0.0  
Snow Depth 0.00 in    
Sea Level Pressure  
Sea Level Pressure 30.01 in    
Wind  
Wind Speed 6 mph (NW)    
Max Wind Speed 15 mph    
Max Gust Speed 23 mph    
Visibility 10 miles    
Events      
T = Trace of Precipitation, MM = Missing Value Source: NWS Daily Summary

Daily Weather History Graph

Daily Weather History Graph

Search for Another Location

Airport or City:

Trip Planner

Search our weather history database for the weather conditions in past years. The results will help you decide how hot, cold, wet, or windy it might be!

Date:

Astronomy

Nov. 07, 2012 Rise Set
Actual Time 6:11 AM CST 4:50 PM CST
Civil Twilight 5:45 AM CST 5:15 PM CST
Nautical Twilight 5:15 AM CST 5:45 PM CST
Astronomical Twilight 4:46 AM CST 6:14 PM CST
Moon No Moon Rise 12:39 PM CST (11/7)
Length of Visible Light 11h 30m
Length of Day
10h 38m
Last Quarter, 43% of the Moon is Illuminated
Nov 7
Last Quarter
Nov 13
New
Nov 20
First Quarter
Nov 28
Full
Dec 6
Last Quarter

Hourly Weather History & Observations

Time (CST) Temp. Windchill Dew Point Humidity Pressure Visibility Wind Dir Wind Speed Gust Speed Precip Events Conditions
12:53 AM 50.0 °F - 45.0 °F 83% 29.98 in 10.0 mi WNW 5.8 mph - N/A   Overcast
1:53 AM 48.0 °F - 44.1 °F 86% 29.96 in 10.0 mi Calm Calm - N/A   Mostly Cloudy
2:53 AM 46.9 °F - 44.1 °F 90% 29.95 in 10.0 mi WNW 3.5 mph - N/A   Scattered Clouds
3:03 AM 46.4 °F 44.3 °F 44.6 °F 93% 29.95 in 10.0 mi WNW 4.6 mph - N/A   Mostly Cloudy
3:10 AM 46.4 °F 43.5 °F 42.8 °F 87% 29.95 in 10.0 mi WNW 5.8 mph - N/A   Scattered Clouds
3:53 AM 45.0 °F 41.8 °F 42.1 °F 90% 29.96 in 10.0 mi NW 5.8 mph - N/A   Clear
4:53 AM 44.1 °F 41.5 °F 42.1 °F 93% 29.97 in 9.0 mi WNW 4.6 mph - N/A   Clear
5:53 AM 44.1 °F - 42.1 °F 93% 29.97 in 8.0 mi Calm Calm - 0.01 in   Mostly Cloudy
6:53 AM 44.1 °F - 41.0 °F 89% 29.99 in 6.0 mi Calm Calm - N/A   Clear
7:53 AM 48.0 °F - 43.0 °F 83% 30.00 in 9.0 mi NNW 4.6 mph - N/A   Clear
8:53 AM 51.1 °F - 42.1 °F 71% 30.01 in 10.0 mi NNW 4.6 mph - N/A   Partly Cloudy
9:53 AM 54.0 °F - 39.9 °F 59% 30.00 in 10.0 mi WNW 10.4 mph - N/A   Partly Cloudy
10:53 AM 55.0 °F - 39.0 °F 55% 29.99 in 10.0 mi WNW 8.1 mph - N/A   Mostly Cloudy
11:53 AM 57.0 °F - 37.9 °F 49% 29.95 in 10.0 mi NW 10.4 mph 17.3 mph N/A   Mostly Cloudy
12:53 PM 57.0 °F - 37.0 °F 47% 29.94 in 10.0 mi WNW 9.2 mph 16.1 mph N/A   Overcast
1:53 PM 57.0 °F - 37.0 °F 47% 29.94 in 10.0 mi NW 10.4 mph 16.1 mph N/A   Overcast
2:53 PM 55.0 °F - 37.9 °F 53% 29.96 in 10.0 mi NW 10.4 mph - N/A   Overcast
3:53 PM 53.1 °F - 37.0 °F 55% 29.99 in 10.0 mi NNW 8.1 mph 16.1 mph N/A   Overcast
5:53 PM 51.1 °F - 36.0 °F 56% 30.05 in 10.0 mi NNW 4.6 mph - N/A   Overcast
6:53 PM 48.9 °F - 37.9 °F 66% 30.08 in 10.0 mi NNW 8.1 mph - N/A   Clear
7:53 PM 46.9 °F - 37.9 °F 71% 30.09 in 10.0 mi NNW 5.8 mph - N/A   Clear
8:53 PM 45.0 °F 41.8 °F 37.9 °F 76% 30.12 in 10.0 mi NW 5.8 mph - N/A   Clear
9:53 PM 43.0 °F 39.5 °F 37.9 °F 82% 30.12 in 10.0 mi NW 5.8 mph - N/A   Clear
10:53 PM 43.0 °F - 39.0 °F 86% 30.12 in 10.0 mi Calm Calm - N/A   Clear
11:53 PM 43.0 °F 39.5 °F 39.0 °F 86% 30.13 in 10.0 mi NNW 5.8 mph - N/A   Clear